Weather Roundup
Issued by NWS

Home | Current Version | Previous Version | Text Only | Print | Product List | Glossary On
Versions: 1 2 3 4 5 6 7 8 9 10 11 12 13 14 15 16 17 18 19 20 21 22 23 24 25 26 27 28 29 30 31 32 33 34 35 36 37 38 39 40 41 42 43 44 45 46 47 48 49 50
000
NZUS93 KARX 061010
HRRWXR

CURRENT HOURLY OBSERVATIONS ACROSS
MUCH OF THE UPPER MISSISSIPPI VALLEY
NATIONAL WEATHER SERVICE LA CROSSE WI
500 AM CDT MON JUL 06 2015


...SOUTHEAST MINNESOTA...


CITY           SKY/WX    TMP DP  RH WIND       PRES   REMARKS
ROCHESTER      CLOUDY    73  69  87 S12       29.85R
ROCHESTER/MAYO CLOUDY    74  70  88 S10G16    29.84R
WINONA         CLOUDY    73  68  83 CALM      29.82S
AUSTIN         CLOUDY    73  70  88 SW3       29.84R
ALBERT LEA     CLOUDY    72  70  94 W10G17    29.85R
DODGE CENTER   CLOUDY    75  70  83 W12G21    29.86R
PRESTON        CLOUDY    71  67  88 S10       29.85R
OWATONNA       TSTM      72  70  94 W6        29.84R
FARIBAULT      CLOUDY    72  70  94 SW6       29.85R
$$

...ELSEWHERE IN MINNESOTA...


CITY           SKY/WX    TMP DP  RH WIND       PRES   REMARKS
MINNEAPOLIS    TSTM      69  68  96 NE10      29.80R FOG
INTNL FALLS    CLOUDY    58  57  97 N10       29.88S FOG
DULUTH         CLOUDY    67  64  90 N9        29.83R
RED WING       TSTM      72  70  94 W9G20     29.84R VSB 3/4
REDWOOD FALLS  RAIN      70  69  97 CALM      29.77F FOG
MANKATO        CLOUDY    72  68  88 W6        29.82R
WORTHINGTON    CLOUDY    68  64  88 NE5       29.84R
FAIRMONT       CLOUDY    72  64  78 W8        29.84R
$$

...SOUTHWEST WISCONSIN...


CITY           SKY/WX    TMP DP  RH WIND       PRES   REMARKS
LA CROSSE      CLOUDY    74  67  78 S14       29.83F
PRAIRIE DU CHI CLOUDY    73  65  76 SE3       29.87S
BOSCOBEL       CLOUDY    72  66  81 S3        29.89S HAZE
LONE ROCK      CLOUDY    72  64  76 S5        29.92R
PLATTEVILLE    CLOUDY    69  67  90 S9        29.92S
FORT MC COY    CLOUDY    71  64  77 S5        29.87S
CAMP DOUGLAS   CLOUDY    71  71 100 S7        29.87F
VIROQUA        FAIR      69  67  92 S7        29.89S
WIS DELLS      CLOUDY    67  63  84 S9        29.92S HAZE
$$

...ELSEWHERE IN WISCONSIN...


CITY           SKY/WX    TMP DP  RH WIND       PRES   REMARKS
MILWAUKEE      PTCLDY    64  59  83 SE5       29.95F
MADISON        MOCLDY    70  63  78 S9        29.93R
GREEN BAY      MOCLDY    67  62  84 S6        29.92R HAZE
EAU CLAIRE     RAIN      69  67  93 E10       29.81F FOG
BLACK RVR FLS  FAIR      71  65  82 S3        29.84F
MEDFORD        CLOUDY    66  64  94 SE3       29.90S FOG
WAUSAU         CLOUDY    68  64  87 SE5       29.90S
WIS RAPIDS     CLOUDY    68  63  84 S6        29.91S
MARSHFIELD     CLOUDY    68  62  81 S7        29.88F HAZE
RICE LAKE      CLOUDY    67  66  95 E3        29.86F
$$

...NORTHEAST IOWA...


CITY           SKY/WX    TMP DP  RH WIND       PRES   REMARKS
DECORAH          N/A    N/A N/A N/A MISG        N/A
MASON CITY       N/A     74  71  91 S8        29.84R
CHARLES CITY   CLOUDY    72  72 100 S12       29.84S
OELWEIN          N/A     72  68  88 S12       29.87S FOG
$$

...ELSEWHERE IN IOWA...


CITY           SKY/WX    TMP DP  RH WIND       PRES   REMARKS
DES MOINES     CLOUDY    79  71  76 S10       29.82R
IOWA CITY      CLOUDY    70  68  93 SE7       29.89F FOG
FORT DODGE     CLOUDY    75  72  88 SW6       29.85R
$$

...NORTHERN ILLINOIS...


CITY           SKY/WX    TMP DP  RH WIND       PRES   REMARKS
CHICAGO-OHARE  PTCLDY    65  62  90 S6        29.97F
CHICAGO-MIDWAY PTCLDY    71  65  81 S9        29.97F
MOLINE         MOCLDY    71  66  84 S8        29.92F HAZE
ROCKFORD       PTCLDY    66  62  87 S9        29.97F
PEORIA         CLEAR     70  64  81 S5        29.98S HAZE
$$

NOTE: "FAIR" INDICATES FEW OR NO CLOUDS BELOW 12,000 FEET WITH NO
SIGNIFICANT WEATHER AND/OR OBSTRUCTIONS TO VISIBILITY. WIND
SPEEDS ARE IN MILES-PER-HOUR.



USA.gov is the U.S. government's official web portal to all federal, state and local government web resources and services.